DLH17 EDDP-LIMC

Flight info

Callsign DLH17
Flight time 1h 16m
Altitude 40000
Route NEVKO1K NEVKO Q243 BAMKI Z94 KOMIB DCT TEDGO DCT SONOM/N0486F410 DCT GERSA DCT SOSON DCT DEGAD Z424 RIXUV
Aircraft A359/H-SDE2E3GHIJ3J4J5LM1ORWXY/LB1D1

Departure

Time 2026-05-05 10:09
Airport Leipzig/Halle Airport (EDDP)

Arrival

Time 2026-05-05 11:25
Airport Milan Malpensa International Airport (LIMC)
Time Latitude Longitude Altitude Speed Heading
2026-05-05 09:46 51.41852 12.22253 442 ft 0 kts 15°
2026-05-05 09:52 51.41839 12.22247 426 ft 3 kts 15°
2026-05-05 09:52 51.41815 12.22237 426 ft 3 kts 15°
2026-05-05 09:53 51.41795 12.22228 426 ft 2 kts 15°
2026-05-05 09:53 51.41779 12.22216 426 ft 4 kts 75°
2026-05-05 09:53 51.41780 12.22183 430 ft 3 kts 105°
2026-05-05 09:53 51.41786 12.22147 430 ft 2 kts 105°
2026-05-05 09:54 51.41786 12.22145 430 ft 0 kts 105°
2026-05-05 09:55 51.41785 12.22153 431 ft 4 kts 104°
2026-05-05 09:55 51.41773 12.22235 442 ft 10 kts 104°
2026-05-05 09:56 51.41752 12.22354 433 ft 12 kts 106°
2026-05-05 09:56 51.41730 12.22480 447 ft 11 kts 105°
2026-05-05 09:56 51.41712 12.22586 451 ft 9 kts 105°
2026-05-05 09:56 51.41697 12.22676 454 ft 8 kts 106°
2026-05-05 09:57 51.41691 12.22706 454 ft 7 kts 106°
2026-05-05 09:57 51.41690 12.22712 456 ft 7 kts 106°
2026-05-05 09:57 51.41677 12.22785 452 ft 6 kts 107°
2026-05-05 09:57 51.41665 12.22851 460 ft 7 kts 107°
2026-05-05 09:58 51.41650 12.22928 463 ft 8 kts 106°
2026-05-05 09:58 51.41634 12.23016 466 ft 9 kts 105°
2026-05-05 09:58 51.41621 12.23110 467 ft 8 kts 102°
2026-05-05 09:58 51.41605 12.23193 466 ft 8 kts 121°
2026-05-05 09:59 51.41560 12.23226 466 ft 8 kts 171°
2026-05-05 09:59 51.41494 12.23235 466 ft 11 kts 175°
2026-05-05 09:59 51.41402 12.23247 470 ft 14 kts 176°
2026-05-05 09:59 51.41297 12.23259 472 ft 17 kts 176°
2026-05-05 10:00 51.41191 12.23273 471 ft 13 kts 175°
2026-05-05 10:00 51.41136 12.23306 473 ft 1 kts 159°
2026-05-05 10:00 51.41121 12.23305 473 ft 5 kts 178°
2026-05-05 10:00 51.41060 12.23312 473 ft 10 kts 159°
2026-05-05 10:01 51.41039 12.23435 473 ft 16 kts 91°
2026-05-05 10:01 51.41049 12.23648 477 ft 23 kts 85°
2026-05-05 10:01 51.41064 12.23932 474 ft 29 kts 85°
2026-05-05 10:01 51.41080 12.24251 472 ft 24 kts 85°
2026-05-05 10:02 51.41089 12.24442 472 ft 16 kts 85°
2026-05-05 10:02 51.41097 12.24628 473 ft 18 kts 85°
2026-05-05 10:02 51.41107 12.24836 478 ft 20 kts 85°
2026-05-05 10:02 51.41118 12.25062 471 ft 22 kts 85°
2026-05-05 10:03 51.41130 12.25319 479 ft 22 kts 85°
2026-05-05 10:03 51.41137 12.25469 477 ft 13 kts 85°
2026-05-05 10:03 51.41142 12.25570 480 ft 4 kts 83°
2026-05-05 10:03 51.41155 12.25603 478 ft 4 kts 46°
2026-05-05 10:04 51.41180 12.25620 475 ft 5 kts 13°
2026-05-05 10:04 51.41220 12.25623 476 ft 7 kts 358°
2026-05-05 10:04 51.41247 12.25620 482 ft 1 kts 355°
2026-05-05 10:04 51.41248 12.25620 482 ft 0 kts 355°
2026-05-05 10:05 51.41249 12.25619 482 ft 1 kts 355°
2026-05-05 10:05 51.41286 12.25615 478 ft 9 kts 355°
2026-05-05 10:05 51.41364 12.25592 476 ft 10 kts 337°
2026-05-05 10:06 51.41396 12.25505 484 ft 8 kts 271°
2026-05-05 10:06 51.41394 12.25430 481 ft 0 kts 265°
2026-05-05 10:08 51.41393 12.25413 482 ft 11 kts 265°
2026-05-05 10:08 51.41369 12.24924 481 ft 82 kts 265°
2026-05-05 10:08 51.41307 12.23636 479 ft 148 kts 265°
2026-05-05 10:08 51.41234 12.21757 849 ft 172 kts 268°
2026-05-05 10:09 51.41178 12.19896 1802 ft 166 kts 268°
2026-05-05 10:09 51.41145 12.18065 2665 ft 162 kts 269°
2026-05-05 10:09 51.41133 12.16244 3334 ft 172 kts 270°
2026-05-05 10:09 51.41132 12.14202 3749 ft 194 kts 270°
2026-05-05 10:10 51.41083 12.11960 4191 ft 209 kts 263°
2026-05-05 10:10 51.40864 12.09614 4792 ft 218 kts 261°
2026-05-05 10:10 51.40642 12.07072 5211 ft 243 kts 263°
2026-05-05 10:10 51.40451 12.04292 5820 ft 257 kts 264°
2026-05-05 10:11 51.40283 12.01413 6708 ft 261 kts 264°
2026-05-05 10:11 51.40126 11.98494 7638 ft 265 kts 264°
2026-05-05 10:11 51.39841 11.95573 8584 ft 267 kts 252°
2026-05-05 10:11 51.38994 11.92942 9595 ft 269 kts 231°
2026-05-05 10:12 51.37567 11.90974 10413 ft 279 kts 214°
2026-05-05 10:12 51.35858 11.89341 10841 ft 301 kts 210°
2026-05-05 10:12 51.33960 11.87643 11226 ft 324 kts 210°
2026-05-05 10:12 51.31924 11.85807 11831 ft 337 kts 210°
2026-05-05 10:13 51.29893 11.83956 12643 ft 343 kts 210°
2026-05-05 10:13 51.27804 11.82043 13518 ft 348 kts 211°
2026-05-05 10:13 51.25710 11.80059 14299 ft 352 kts 214°
2026-05-05 10:13 51.23723 11.77758 15082 ft 355 kts 218°
2026-05-05 10:14 51.21767 11.75319 15861 ft 358 kts 219°
2026-05-05 10:14 51.19799 11.72849 16694 ft 361 kts 219°
2026-05-05 10:14 51.17821 11.70372 17516 ft 364 kts 219°
2026-05-05 10:14 51.15815 11.67866 18287 ft 367 kts 219°
2026-05-05 10:15 51.13793 11.65346 18947 ft 372 kts 219°
2026-05-05 10:15 51.12271 11.63452 19434 ft 376 kts 219°
2026-05-05 10:15 51.11149 11.62057 19794 ft 378 kts 219°
2026-05-05 10:15 51.09063 11.59465 20504 ft 383 kts 219°
2026-05-05 10:16 51.06947 11.56840 21185 ft 388 kts 219°
2026-05-05 10:16 51.04809 11.54190 21881 ft 392 kts 219°
2026-05-05 10:16 51.02642 11.51509 22562 ft 397 kts 219°
2026-05-05 10:16 51.00453 11.48803 23228 ft 402 kts 219°
2026-05-05 10:17 50.98228 11.46056 23771 ft 408 kts 219°
2026-05-05 10:17 50.95981 11.43288 24386 ft 410 kts 219°
2026-05-05 10:17 50.93720 11.40504 25051 ft 412 kts 219°
2026-05-05 10:17 50.91452 11.37716 25683 ft 414 kts 219°
2026-05-05 10:18 50.89167 11.34910 26343 ft 417 kts 219°
2026-05-05 10:18 50.86896 11.32052 26972 ft 419 kts 221°
2026-05-05 10:18 50.84835 11.28785 27564 ft 420 kts 229°
2026-05-05 10:18 50.82961 11.25216 28181 ft 423 kts 231°
2026-05-05 10:19 50.81151 11.21530 28774 ft 426 kts 232°
2026-05-05 10:19 50.79366 11.17786 29325 ft 429 kts 232°
2026-05-05 10:19 50.77566 11.13992 29753 ft 434 kts 232°
2026-05-05 10:19 50.75744 11.10170 30248 ft 436 kts 232°
2026-05-05 10:20 50.73901 11.06355 30713 ft 438 kts 231°
2026-05-05 10:20 50.71892 11.02808 31151 ft 440 kts 225°
2026-05-05 10:20 50.69533 10.99610 31572 ft 443 kts 218°
2026-05-05 10:20 50.67058 10.96714 31979 ft 445 kts 217°
2026-05-05 10:21 50.64521 10.93885 32408 ft 447 kts 216°
2026-05-05 10:21 50.61955 10.91087 32769 ft 450 kts 216°
2026-05-05 10:21 50.59378 10.88304 33208 ft 450 kts 216°
2026-05-05 10:21 50.56834 10.85561 33755 ft 447 kts 216°
2026-05-05 10:22 50.55106 10.83694 34094 ft 446 kts 216°
2026-05-05 10:22 50.51703 10.80003 34653 ft 444 kts 216°
2026-05-05 10:22 50.50019 10.78171 34883 ft 444 kts 216°
2026-05-05 10:22 50.46657 10.74517 35371 ft 444 kts 216°
2026-05-05 10:23 50.44121 10.71765 35738 ft 443 kts 216°
2026-05-05 10:23 50.41585 10.69011 36068 ft 443 kts 216°
2026-05-05 10:23 50.39872 10.67150 36324 ft 443 kts 216°
2026-05-05 10:23 50.36521 10.63522 36828 ft 442 kts 216°
2026-05-05 10:24 50.34818 10.61682 37017 ft 442 kts 216°
2026-05-05 10:24 50.32286 10.58946 37326 ft 442 kts 216°
2026-05-05 10:24 50.29756 10.56222 37636 ft 442 kts 216°
2026-05-05 10:24 50.27221 10.53501 37941 ft 442 kts 216°
2026-05-05 10:25 50.24688 10.50781 38227 ft 441 kts 216°
2026-05-05 10:25 50.22278 10.47828 38517 ft 441 kts 222°
2026-05-05 10:25 50.20052 10.44547 38732 ft 440 kts 224°
2026-05-05 10:25 50.17904 10.41213 38888 ft 442 kts 225°
2026-05-05 10:26 50.15749 10.37785 39009 ft 444 kts 225°
2026-05-05 10:26 50.13568 10.34280 39167 ft 445 kts 226°
2026-05-05 10:26 50.11441 10.30858 39365 ft 445 kts 225°
2026-05-05 10:26 50.09228 10.27490 39535 ft 445 kts 221°
2026-05-05 10:27 50.06789 10.24527 39711 ft 446 kts 214°
2026-05-05 10:27 50.04105 10.22082 39863 ft 448 kts 207°
2026-05-05 10:27 50.01307 10.19959 40032 ft 449 kts 206°
2026-05-05 10:27 49.98455 10.17937 40192 ft 450 kts 205°
2026-05-05 10:28 49.95595 10.15974 40339 ft 450 kts 205°
2026-05-05 10:28 49.92719 10.14020 40463 ft 451 kts 205°
2026-05-05 10:28 49.89844 10.12066 40630 ft 452 kts 205°
2026-05-05 10:28 49.86972 10.10104 40785 ft 452 kts 205°
2026-05-05 10:29 49.81207 10.06141 40850 ft 453 kts 205°
2026-05-05 10:29 49.75450 10.02173 40842 ft 453 kts 205°
2026-05-05 10:30 49.69694 9.98213 40851 ft 453 kts 205°
2026-05-05 10:30 49.63930 9.94260 40852 ft 453 kts 205°
2026-05-05 10:31 49.58159 9.90313 40855 ft 454 kts 205°
2026-05-05 10:31 49.52379 9.86371 40852 ft 455 kts 205°
2026-05-05 10:32 49.46590 9.82433 40856 ft 456 kts 204°
2026-05-05 10:32 49.40783 9.78494 40856 ft 456 kts 204°
2026-05-05 10:33 49.34979 9.74566 40855 ft 456 kts 204°
2026-05-05 10:33 49.29176 9.70649 40853 ft 457 kts 204°
2026-05-05 10:34 49.23353 9.66728 40852 ft 457 kts 204°
2026-05-05 10:34 49.17569 9.62845 40854 ft 457 kts 204°
2026-05-05 10:35 49.11742 9.58942 40849 ft 457 kts 204°
2026-05-05 10:35 49.05916 9.55049 40854 ft 459 kts 204°
2026-05-05 10:36 49.00056 9.51145 40857 ft 459 kts 204°
2026-05-05 10:36 48.94217 9.47265 40847 ft 459 kts 204°
2026-05-05 10:37 48.88352 9.43376 40846 ft 459 kts 204°
2026-05-05 10:37 48.82489 9.39499 40843 ft 460 kts 204°
2026-05-05 10:38 48.76616 9.35625 40855 ft 460 kts 204°
2026-05-05 10:38 48.70744 9.31763 40869 ft 460 kts 204°
2026-05-05 10:39 48.64866 9.27906 40855 ft 460 kts 204°
2026-05-05 10:39 48.58860 9.24615 40857 ft 460 kts 198°
2026-05-05 10:40 48.52710 9.21837 40852 ft 461 kts 197°
2026-05-05 10:40 48.46587 9.19165 40845 ft 461 kts 197°
2026-05-05 10:41 48.40426 9.16480 40849 ft 461 kts 197°
2026-05-05 10:41 48.34269 9.13788 40850 ft 461 kts 197°
2026-05-05 10:42 48.25033 9.09752 40850 ft 462 kts 197°
2026-05-05 10:43 48.18851 9.07059 40862 ft 462 kts 197°
2026-05-05 10:43 48.12679 9.04377 40857 ft 462 kts 197°
2026-05-05 10:44 48.06503 9.01701 40857 ft 462 kts 197°
2026-05-05 10:44 48.00324 8.99030 40864 ft 462 kts 197°
2026-05-05 10:45 47.94151 8.96369 40869 ft 462 kts 197°
2026-05-05 10:45 47.87954 8.93703 40869 ft 462 kts 197°
2026-05-05 10:46 47.81768 8.91049 40877 ft 463 kts 197°
2026-05-05 10:46 47.75595 8.88358 40878 ft 463 kts 198°
2026-05-05 10:47 47.69490 8.85332 40884 ft 463 kts 200°
2026-05-05 10:47 47.63397 8.82229 40884 ft 463 kts 200°
2026-05-05 10:48 47.57288 8.79177 40887 ft 463 kts 199°
2026-05-05 10:48 47.51173 8.76166 40886 ft 463 kts 199°
2026-05-05 10:49 47.45104 8.73196 40880 ft 463 kts 199°
2026-05-05 10:49 47.38953 8.70192 40884 ft 463 kts 199°
2026-05-05 10:50 47.32872 8.67227 40841 ft 464 kts 199°
2026-05-05 10:50 47.29812 8.65737 40604 ft 463 kts 199°
2026-05-05 10:50 47.26755 8.64251 40365 ft 462 kts 199°
2026-05-05 10:50 47.23837 8.62835 40136 ft 461 kts 200°
2026-05-05 10:51 47.21706 8.61801 39977 ft 460 kts 200°
2026-05-05 10:51 47.19015 8.60496 39764 ft 460 kts 200°
2026-05-05 10:51 47.15995 8.59035 39529 ft 459 kts 200°
2026-05-05 10:51 47.13106 8.57638 39323 ft 458 kts 199°
2026-05-05 10:52 47.10249 8.56257 39115 ft 457 kts 199°
2026-05-05 10:52 47.07864 8.55141 38935 ft 457 kts 197°
2026-05-05 10:52 47.04790 8.54137 38720 ft 458 kts 191°
2026-05-05 10:52 47.01617 8.53759 38464 ft 460 kts 182°
2026-05-05 10:53 46.98417 8.53950 38180 ft 460 kts 179°
2026-05-05 10:53 46.95229 8.54329 37913 ft 460 kts 178°
2026-05-05 10:53 46.92037 8.54794 37608 ft 460 kts 177°
2026-05-05 10:53 46.88870 8.55286 36995 ft 457 kts 176°
2026-05-05 10:54 46.85705 8.55780 36302 ft 456 kts 176°
2026-05-05 10:54 46.82558 8.56262 35589 ft 455 kts 177°
2026-05-05 10:54 46.79406 8.56733 34834 ft 456 kts 176°
2026-05-05 10:54 46.76249 8.57194 34004 ft 457 kts 176°
2026-05-05 10:55 46.73074 8.57650 33098 ft 458 kts 176°
2026-05-05 10:55 46.69902 8.58101 32200 ft 459 kts 176°
2026-05-05 10:55 46.66727 8.58550 31306 ft 459 kts 175°
2026-05-05 10:55 46.63549 8.59004 30397 ft 460 kts 175°
2026-05-05 10:56 46.60354 8.59460 29354 ft 461 kts 175°
2026-05-05 10:56 46.57177 8.59918 28659 ft 456 kts 175°
2026-05-05 10:56 46.54034 8.60367 28011 ft 451 kts 175°
2026-05-05 10:56 46.50932 8.60806 27354 ft 445 kts 176°
2026-05-05 10:57 46.47863 8.61176 26710 ft 440 kts 179°
2026-05-05 10:57 46.44834 8.60929 26064 ft 434 kts 189°
2026-05-05 10:57 46.41931 8.59833 25412 ft 430 kts 201°
2026-05-05 10:57 46.39240 8.57967 24771 ft 427 kts 208°
2026-05-05 10:58 46.36672 8.55847 24138 ft 424 kts 210°
2026-05-05 10:58 46.34169 8.53617 23477 ft 421 kts 212°
2026-05-05 10:58 46.31708 8.51350 22789 ft 418 kts 212°
2026-05-05 10:58 46.29183 8.49333 22146 ft 412 kts 204°
2026-05-05 10:59 46.26471 8.48103 21495 ft 409 kts 191°
2026-05-05 10:59 46.23644 8.47804 20958 ft 404 kts 181°
2026-05-05 10:59 46.20882 8.48073 20946 ft 407 kts 174°
2026-05-05 10:59 46.18075 8.49018 20826 ft 420 kts 163°
2026-05-05 11:00 46.15341 8.50605 20589 ft 422 kts 159°
2026-05-05 11:00 46.12683 8.52330 20227 ft 417 kts 158°
2026-05-05 11:00 46.10099 8.54039 19668 ft 411 kts 158°
2026-05-05 11:00 46.07483 8.55778 19083 ft 407 kts 158°
2026-05-05 11:01 46.04929 8.57479 18488 ft 404 kts 158°
2026-05-05 11:01 46.02420 8.59152 17842 ft 400 kts 158°
2026-05-05 11:01 45.99875 8.60849 17226 ft 396 kts 158°
2026-05-05 11:01 45.97387 8.62505 16619 ft 392 kts 158°
2026-05-05 11:02 45.94926 8.64142 16029 ft 388 kts 158°
2026-05-05 11:02 45.92493 8.65759 15441 ft 384 kts 158°
2026-05-05 11:02 45.90073 8.67368 14850 ft 382 kts 158°
2026-05-05 11:02 45.87672 8.68961 14252 ft 379 kts 158°
2026-05-05 11:03 45.85318 8.70522 13648 ft 376 kts 158°
2026-05-05 11:03 45.82953 8.72088 13026 ft 372 kts 158°
2026-05-05 11:03 45.80620 8.73633 12443 ft 368 kts 158°
2026-05-05 11:03 45.78272 8.75185 12088 ft 364 kts 158°
2026-05-05 11:04 45.76031 8.76669 12006 ft 345 kts 158°
2026-05-05 11:04 45.73929 8.78200 11818 ft 333 kts 154°
2026-05-05 11:04 45.71938 8.79777 11574 ft 321 kts 153°
2026-05-05 11:04 45.70022 8.81290 11318 ft 307 kts 154°
2026-05-05 11:05 45.68227 8.82698 11157 ft 280 kts 154°
2026-05-05 11:05 45.66586 8.83977 11028 ft 259 kts 154°
2026-05-05 11:05 45.65000 8.85197 10916 ft 260 kts 154°
2026-05-05 11:05 45.63401 8.86431 10780 ft 262 kts 154°
2026-05-05 11:06 45.61770 8.87576 10639 ft 261 kts 163°
2026-05-05 11:06 45.60031 8.88219 10446 ft 254 kts 171°
2026-05-05 11:06 45.58316 8.88679 10289 ft 248 kts 172°
2026-05-05 11:06 45.56639 8.89117 10065 ft 244 kts 172°
2026-05-05 11:07 45.54967 8.89558 9781 ft 248 kts 172°
2026-05-05 11:07 45.53238 8.90017 9496 ft 254 kts 171°
2026-05-05 11:07 45.51501 8.90485 9194 ft 254 kts 171°
2026-05-05 11:07 45.49780 8.90951 8996 ft 253 kts 171°
2026-05-05 11:08 45.48046 8.91426 8613 ft 253 kts 170°
2026-05-05 11:08 45.46306 8.91897 8185 ft 254 kts 170°
2026-05-05 11:08 45.44570 8.92369 7866 ft 253 kts 170°
2026-05-05 11:08 45.42838 8.92842 7528 ft 254 kts 169°
2026-05-05 11:09 45.41110 8.93312 7169 ft 252 kts 170°
2026-05-05 11:09 45.39415 8.93770 6724 ft 245 kts 170°
2026-05-05 11:09 45.38314 8.94069 6350 ft 242 kts 169°
2026-05-05 11:09 45.36147 8.94659 5937 ft 232 kts 170°
2026-05-05 11:10 45.35092 8.94941 5917 ft 233 kts 170°
2026-05-05 11:10 45.33497 8.95370 5916 ft 233 kts 170°
2026-05-05 11:10 45.31900 8.95801 5917 ft 233 kts 170°
2026-05-05 11:10 45.29791 8.96373 5914 ft 233 kts 170°
2026-05-05 11:11 45.28196 8.96808 5888 ft 233 kts 170°
2026-05-05 11:11 45.27118 8.97100 5886 ft 233 kts 170°
2026-05-05 11:11 45.25546 8.97525 5887 ft 233 kts 170°
2026-05-05 11:11 45.23937 8.97961 5881 ft 233 kts 170°
2026-05-05 11:12 45.22376 8.98384 5807 ft 227 kts 170°
2026-05-05 11:12 45.20833 8.98808 5799 ft 223 kts 171°
2026-05-05 11:12 45.19311 8.99214 5798 ft 222 kts 171°
2026-05-05 11:12 45.17791 8.99618 5798 ft 222 kts 171°
2026-05-05 11:13 45.16289 9.00017 5797 ft 222 kts 171°
2026-05-05 11:13 45.14734 9.00258 5813 ft 238 kts 182°
2026-05-05 11:13 45.13107 8.99701 5810 ft 239 kts 208°
2026-05-05 11:13 45.11962 8.98139 5740 ft 226 kts 240°
2026-05-05 11:14 45.11575 8.96033 5625 ft 222 kts 268°
2026-05-05 11:14 45.11690 8.93824 5499 ft 231 kts 276°
2026-05-05 11:14 45.11867 8.91509 5472 ft 241 kts 273°
2026-05-05 11:14 45.12193 8.89161 5359 ft 244 kts 289°
2026-05-05 11:15 45.13114 8.87154 5230 ft 247 kts 316°
2026-05-05 11:15 45.14611 8.85995 5112 ft 247 kts 343°
2026-05-05 11:15 45.16281 8.85490 4997 ft 245 kts 349°
2026-05-05 11:15 45.17955 8.85084 4865 ft 244 kts 349°
2026-05-05 11:16 45.19619 8.84669 4739 ft 242 kts 349°
2026-05-05 11:16 45.21281 8.84283 4595 ft 243 kts 356°
2026-05-05 11:16 45.22974 8.84460 4599 ft 245 kts 359°
2026-05-05 11:16 45.24624 8.84082 4523 ft 236 kts 349°
2026-05-05 11:17 45.26198 8.83634 4376 ft 226 kts 350°
2026-05-05 11:17 45.27712 8.83213 4274 ft 218 kts 349°
2026-05-05 11:17 45.29192 8.82790 4175 ft 216 kts 349°
2026-05-05 11:17 45.30668 8.82358 4051 ft 216 kts 349°
2026-05-05 11:18 45.32101 8.81926 4016 ft 209 kts 349°
2026-05-05 11:18 45.33520 8.81497 4015 ft 207 kts 349°
2026-05-05 11:18 45.34930 8.81083 4016 ft 207 kts 349°
2026-05-05 11:18 45.36312 8.80691 4016 ft 199 kts 350°
2026-05-05 11:19 45.37656 8.80321 4006 ft 196 kts 350°
2026-05-05 11:19 45.38995 8.79962 3900 ft 195 kts 351°
2026-05-05 11:19 45.40330 8.79606 3768 ft 195 kts 351°
2026-05-05 11:19 45.41662 8.79251 3644 ft 194 kts 350°
2026-05-05 11:20 45.42994 8.78892 3522 ft 194 kts 350°
2026-05-05 11:20 45.44311 8.78530 3375 ft 193 kts 352°
2026-05-05 11:20 45.45631 8.78167 3280 ft 194 kts 351°
2026-05-05 11:20 45.46954 8.77801 3209 ft 191 kts 351°
2026-05-05 11:21 45.48228 8.77442 3142 ft 180 kts 352°
2026-05-05 11:21 45.49416 8.77109 3081 ft 169 kts 352°
2026-05-05 11:21 45.50547 8.76799 2980 ft 164 kts 351°
2026-05-05 11:21 45.51657 8.76497 2789 ft 161 kts 352°
2026-05-05 11:22 45.52755 8.76197 2546 ft 161 kts 352°
2026-05-05 11:22 45.53848 8.75891 2328 ft 158 kts 352°
2026-05-05 11:22 45.54915 8.75598 2114 ft 154 kts 352°
2026-05-05 11:22 45.55944 8.75313 1910 ft 146 kts 352°
2026-05-05 11:23 45.56907 8.75046 1717 ft 137 kts 352°
2026-05-05 11:23 45.57813 8.74796 1508 ft 130 kts 352°
2026-05-05 11:23 45.58702 8.74573 1337 ft 130 kts 352°
2026-05-05 11:23 45.59602 8.74297 1114 ft 133 kts 348°
2026-05-05 11:24 45.60496 8.74052 948 ft 129 kts 350°
2026-05-05 11:24 45.61383 8.73805 825 ft 130 kts 349°
2026-05-05 11:24 45.62253 8.73557 758 ft 122 kts 349°
2026-05-05 11:24 45.62996 8.73358 746 ft 95 kts 349°
2026-05-05 11:25 45.63532 8.73204 754 ft 42 kts 348°
2026-05-05 11:25 45.63739 8.73042 752 ft 28 kts 314°
2026-05-05 11:25 45.63829 8.72886 753 ft 18 kts 306°
2026-05-05 11:25 45.63899 8.72741 753 ft 18 kts 303°
2026-05-05 11:26 45.63956 8.72570 755 ft 20 kts 271°
2026-05-05 11:26 45.63929 8.72365 757 ft 22 kts 258°
2026-05-05 11:26 45.63909 8.72151 750 ft 24 kts 267°
2026-05-05 11:26 45.63898 8.71934 755 ft 14 kts 262°
2026-05-05 11:27 45.63850 8.71834 752 ft 13 kts 205°
2026-05-05 11:27 45.63751 8.71836 752 ft 16 kts 167°
2026-05-05 11:27 45.63665 8.71860 754 ft 12 kts 170°
2026-05-05 11:27 45.63570 8.71886 756 ft 16 kts 168°
2026-05-05 11:28 45.63450 8.71919 752 ft 19 kts 169°
2026-05-05 11:28 45.63312 8.71957 754 ft 22 kts 168°
2026-05-05 11:28 45.63168 8.72000 752 ft 21 kts 168°
2026-05-05 11:28 45.63014 8.72040 756 ft 24 kts 170°
2026-05-05 11:29 45.62844 8.72090 756 ft 26 kts 168°
2026-05-05 11:29 45.62660 8.72138 753 ft 28 kts 169°
2026-05-05 11:29 45.62505 8.72180 754 ft 10 kts 169°
2026-05-05 11:29 45.62452 8.72194 753 ft 9 kts 169°
2026-05-05 11:30 45.62383 8.72184 755 ft 10 kts 219°
2026-05-05 11:30 45.62359 8.72082 756 ft 12 kts 258°
2026-05-05 11:30 45.62340 8.71952 759 ft 15 kts 258°
2026-05-05 11:30 45.62326 8.71841 756 ft 8 kts 261°
2026-05-05 11:31 45.62306 8.71785 745 ft 6 kts 210°
2026-05-05 11:31 45.62259 8.71781 758 ft 6 kts 168°
2026-05-05 11:31 45.62246 8.71784 758 ft 2 kts 169°
2026-05-05 11:31 45.62236 8.71787 754 ft 0 kts 169°
2026-05-05 11:32 45.62232 8.71788 754 ft 0 kts 169°